EW9904 Weather Reports


Display with metric or nautical units.
time (UTC)temp
F
wind
direction
speed
MPH
gust
MPH
rain 1hr
in
rain 24hr
in
rain mn
in
humidity
%
barometer
mb
20230203075512 37 273 1.0 4.0 0.00 0.00 0.00 89 1011.9
20230203075012 37 257 1.0 4.0 0.00 0.00 0.00 89 1011.9
20230203074512 37 259 2.0 4.0 0.00 0.00 0.00 89 1011.9
20230203074019 37 259 1.0 4.0 0.00 0.00 0.00 89 1011.9
20230203073012 37 269 2.0 6.0 0.00 0.00 0.00 88 1011.8
20230203072512 37 259 2.0 6.0 0.00 0.00 0.00 88 1011.8
20230203071022 38 296 3.0 13.0 0.00 0.00 0.00 88 1012.1
20230203070513 38 244 2.0 9.0 0.00 0.00 0.00 88 1012.2
20230203070012 38 280 3.0 8.0 0.00 0.00 0.00 88 1012.2
20230203065512 38 291 3.0 8.0 0.00 0.00 0.00 88 1012.3
20230203064512 38 281 3.0 9.0 0.00 0.00 0.00 88 1012.1
20230203064013 38 267 3.0 11.0 0.00 0.00 0.00 88 1012.1
20230203063512 38 247 3.0 10.0 0.00 0.00 0.00 88 1011.9
20230203063014 38 262 3.0 9.0 0.00 0.00 0.00 88 1011.9
20230203062512 38 286 3.0 9.0 0.00 0.00 0.00 88 1011.9
20230203062014 38 263 3.0 7.0 0.00 0.00 0.00 88 1011.9
20230203061012 38 279 2.0 10.0 0.00 0.00 0.00 88 1012.0
20230203060015 37 244 3.0 10.0 0.00 0.00 0.00 88 1012.1
20230203055513 37 338 3.0 8.0 0.00 0.00 0.00 88 1012.2
20230203055012 37 262 3.0 9.0 0.00 0.00 0.00 88 1012.3
20230203054513 37 275 3.0 9.0 0.00 0.00 0.00 88 1012.5
20230203054013 37 288 3.0 8.0 0.00 0.00 0.00 88 1012.5
20230203053512 37 274 2.0 9.0 0.00 0.00 0.00 88 1012.5
20230203053012 37 238 3.0 9.0 0.00 0.00 0.00 88 1012.4
20230203052012 36 294 3.0 9.0 0.00 0.00 0.00 88 1012.4
20230203051512 36 252 3.0 8.0 0.00 0.00 0.00 88 1012.8
20230203051012 36 256 3.0 8.0 0.00 0.00 0.00 88 1012.8
20230203050024 36 306 3.0 8.0 0.00 0.00 0.00 88 1013.2
20230203045512 36 255 3.0 8.0 0.00 0.00 0.00 88 1013.2
20230203045012 35 234 3.0 8.0 0.00 0.00 0.00 88 1013.2
20230203044012 35 254 3.0 7.0 0.00 0.00 0.00 87 1013.6
20230203043513 35 269 2.0 8.0 0.00 0.00 0.00 87 1014.0
20230203043013 34 265 2.0 8.0 0.00 0.00 0.00 87 1014.1
20230203042513 34 267 2.0 8.0 0.00 0.00 0.00 87 1014.1
20230203042012 34 265 2.0 5.0 0.00 0.00 0.00 87 1014.0
20230203041512 34 238 2.0 7.0 0.00 0.00 0.00 86 1013.8
20230203041012 34 250 3.0 7.0 0.00 0.00 0.00 86 1013.8
20230203040512 34 262 2.0 6.0 0.00 0.00 0.00 86 1013.7
20230203035512 34 255 3.0 9.0 0.00 0.00 0.00 86 1013.6
20230203034013 34 256 2.0 6.0 0.00 0.00 0.00 85 1013.6
20230203033512 34 304 2.0 6.0 0.00 0.00 0.00 85 1013.6
20230203033012 34 270 1.0 6.0 0.00 0.00 0.00 85 1013.7
20230203032512 34 271 2.0 6.0 0.00 0.00 0.00 85 1014.0
20230203032012 34 255 2.0 4.0 0.00 0.00 0.00 84 1014.2
20230203031512 34 243 2.0 4.0 0.00 0.00 0.00 84 1014.2
20230203031012 35 258 2.0 7.0 0.00 0.00 0.00 83 1014.2
20230203030512 35 241 3.0 8.0 0.00 0.00 0.00 83 1014.3
20230203025513 35 277 2.0 7.0 0.00 0.00 0.00 83 1014.5
20230203025011 34 277 3.0 8.0 0.00 0.00 0.00 83 1014.5
20230203024514 34 238 2.0 8.0 0.00 0.00 0.00 82 1014.4
20230203024014 34 253 2.0 8.0 0.00 0.00 0.00 82 1014.5
20230203023012 34 246 2.0 6.0 0.00 0.00 0.00 81 1014.8
20230203022511 34 259 1.0 7.0 0.00 0.00 0.00 81 1014.8
20230203022014 34 260 1.0 7.0 0.00 0.00 0.00 80 1014.9
20230203021512 34 275 2.0 5.0 0.00 0.00 0.00 80 1014.9
20230203021014 34 237 2.0 5.0 0.00 0.00 0.00 80 1015.1
20230203020512 34 267 2.0 8.0 0.00 0.00 0.00 79 1015.1
20230203020021 34 254 2.0 8.0 0.00 0.00 0.00 79 1015.3
20230203015509 34 252 2.0 5.0 0.00 0.00 0.00 78 1015.2
20230203015009 34 223 2.0 7.0 0.00 0.00 0.00 78 1015.0
20230203014510 34 281 2.0 7.0 0.00 0.00 0.00 77 1015.3
20230203013509 34 246 2.0 4.0 0.00 0.00 0.00 76 1015.4
20230203013009 34 231 2.0 5.0 0.00 0.00 0.00 75 1015.5
20230203012509 34 237 2.0 5.0 0.00 0.00 0.00 75 1015.7
20230203012009 34 272 2.0 6.0 0.00 0.00 0.00 74 1015.8
20230203011510 34 241 1.0 4.0 0.00 0.00 0.00 74 1015.7
20230203011009 34 269 1.0 3.0 0.00 0.00 0.00 74 1015.7
20230203010509 34 274 1.0 4.0 0.00 0.00 0.00 74 1015.7
20230203005509 34 227 2.0 4.0 0.00 0.00 0.00 73 1015.7
20230203005010 34 206 1.0 4.0 0.00 0.00 0.00 72 1015.8
20230203004010 34 259 1.0 5.0 0.00 0.00 0.00 72 1015.9
20230203003009 35 225 2.0 4.0 0.00 0.00 0.00 71 1016.0
20230203002510 35 271 1.0 4.0 0.00 0.00 0.00 71 1016.0
20230203002010 35 255 1.0 4.0 0.00 0.00 0.00 71 1016.2
20230203001512 35 292 1.0 3.0 0.00 0.00 0.00 71 1016.2
20230203001009 35 296 1.0 3.0 0.00 0.00 0.00 70 1016.3
20230203000508 35 297 1.0 4.0 0.00 0.00 0.00 69 1016.5
20230203000012 35 298 1.0 4.0 0.00 0.00 0.00 69 1016.6
20230202235509 35 278 1.0 4.0 0.00 0.00 0.00 68 1016.4
20230202234509 35 243 1.0 3.0 0.00 0.00 0.00 67 1016.6
20230202234009 35 244 1.0 3.0 0.00 0.00 0.00 66 1016.7
20230202233511 35 243 1.0 3.0 0.00 0.00 0.00 66 1016.8
20230202232510 35 243 0.0 4.0 0.00 0.00 0.00 66 1017.0
20230202232011 35 243 0.0 4.0 0.00 0.00 0.00 65 1017.0
20230202231509 35 294 0.0 2.0 0.00 0.00 0.00 66 1017.1
20230202230509 35 294 0.0 3.0 0.00 0.00 0.00 65 1017.1
20230202230010 35 297 0.0 1.0 0.00 0.00 0.00 63 1017.3
20230202225509 35 297 0.0 3.0 0.00 0.00 0.00 64 1017.3
20230202224508 35 246 0.0 2.0 0.00 0.00 0.00 62 1017.1
20230202224011 35 246 0.0 2.0 0.00 0.00 0.00 63 1017.2
20230202223508 36 246 0.0 1.0 0.00 0.00 0.00 64 1017.2
20230202223008 36 246 0.0 1.0 0.00 0.00 0.00 61 1017.1
20230202222509 36 246 0.0 1.0 0.00 0.00 0.00 61 1017.1
20230202222010 36 246 0.0 0.0 0.00 0.00 0.00 62 1017.0
20230202221509 36 246 0.0 4.0 0.00 0.00 0.00 60 1017.1
20230202221010 37 246 0.0 4.0 0.00 0.00 0.00 61 1017.1
20230202220509 37 242 0.0 1.0 0.00 0.00 0.00 60 1017.0
20230202220011 37 242 0.0 2.0 0.00 0.00 0.00 60 1017.1
20230202215508 37 242 1.0 2.0 0.00 0.00 0.00 60 1017.3
20230202214508 38 242 1.0 3.0 0.00 0.00 0.00 59 1017.6
20230202213508 38 241 1.0 7.0 0.00 0.00 0.00 59 1017.7
20230202213010 38 241 1.0 7.0 0.00 0.00 0.00 60 1017.7
20230202212509 38 257 1.0 4.0 0.00 0.00 0.00 57 1018.0
20230202212011 38 257 1.0 6.0 0.00 0.00 0.00 57 1018.1
20230202211509 38 257 1.0 6.0 0.00 0.00 0.00 55 1018.0
20230202211009 38 260 1.0 4.0 0.00 0.00 0.00 57 1018.0
20230202210508 38 260 2.0 5.0 0.00 0.00 0.00 55 1018.0
20230202205508 39 254 1.0 4.0 0.00 0.00 0.00 53 1018.0
20230202205010 39 307 1.0 5.0 0.00 0.00 0.00 53 1017.9
20230202204508 39 307 2.0 6.0 0.00 0.00 0.00 55 1017.9
20230202204011 39 265 2.0 6.0 0.00 0.00 0.00 52 1018.1
20230202203010 39 273 2.0 7.0 0.00 0.00 0.00 54 1018.2
20230202202508 39 279 2.0 7.0 0.00 0.00 0.00 52 1018.2
20230202202011 39 258 1.0 3.0 0.00 0.00 0.00 52 1018.2
20230202201508 39 259 1.0 3.0 0.00 0.00 0.00 54 1018.3
20230202201011 39 261 1.0 3.0 0.00 0.00 0.00 53 1018.3
20230202200012 39 269 2.0 4.0 0.00 0.00 0.00 52 1018.4
20230202195509 40 256 2.0 5.0 0.00 0.00 0.00 52 1018.6
20230202195011 40 266 1.0 5.0 0.00 0.00 0.00 52 1018.8
20230202194508 40 317 2.0 4.0 0.00 0.00 0.00 49 1018.8
20230202194011 39 257 2.0 6.0 0.00 0.00 0.00 50 1019.0
20230202193508 39 270 2.0 6.0 0.00 0.00 0.00 53 1019.1
20230202193009 40 246 1.0 3.0 0.00 0.00 0.00 52 1019.2
20230202192510 39 246 1.0 4.0 0.00 0.00 0.00 56 1019.2
20230202192011 39 246 1.0 5.0 0.00 0.00 0.00 54 1019.4
20230202191010 39 315 2.0 5.0 0.00 0.00 0.00 53 1019.5
20230202190011 39 317 3.0 7.0 0.00 0.00 0.00 51 1019.7
20230202185508 39 248 2.0 6.0 0.00 0.00 0.00 54 1019.6
20230202185010 39 261 1.0 6.0 0.00 0.00 0.00 53 1019.6
20230202184511 39 320 1.0 6.0 0.00 0.00 0.00 54 1019.7
20230202184011 39 290 2.0 4.0 0.00 0.00 0.00 52 1019.6
20230202183508 39 296 2.0 4.0 0.00 0.00 0.00 54 1019.7
20230202183010 39 248 1.0 4.0 0.00 0.00 0.00 54 1019.9
20230202182509 39 261 2.0 4.0 0.00 0.00 0.00 52 1020.2
20230202182011 39 261 2.0 4.0 0.00 0.00 0.00 53 1020.5
20230202181509 39 238 2.0 5.0 0.00 0.00 0.00 57 1020.6
20230202181009 39 179 3.0 7.0 0.00 0.00 0.00 55 1020.6
20230202180510 39 179 3.0 7.0 0.00 0.00 0.00 50 1020.5
20230202175511 39 233 2.0 5.0 0.00 0.02 0.00 53 1021.0
20230202174012 38 230 2.0 4.0 0.00 0.02 0.00 53 1021.4
20230202173010 39 225 1.0 4.0 0.00 0.02 0.00 53 1021.9
20230202172508 39 253 1.0 4.0 0.00 0.02 0.00 56 1021.8
20230202171508 38 257 2.0 4.0 0.00 0.02 0.00 52 1022.2
20230202171012 38 256 1.0 4.0 0.00 0.02 0.00 56 1022.4
20230202170508 38 268 1.0 3.0 0.00 0.02 0.00 59 1022.6
20230202170011 38 272 1.0 3.0 0.00 0.02 0.00 60 1022.8
20230202165508 37 272 1.0 3.0 0.00 0.04 0.00 58 1023.0
20230202165009 37 273 1.0 3.0 0.00 0.04 0.00 59 1023.2
20230202164508 36 349 1.0 3.0 0.00 0.04 0.00 60 1023.3
20230202164011 36 350 1.0 3.0 0.00 0.04 0.00 63 1023.3
20230202162508 36 41 1.0 3.0 0.00 0.04 0.00 62 1023.8
20230202162011 36 41 1.0 3.0 0.00 0.04 0.00 61 1023.9
20230202161508 36 41 1.0 3.0 0.00 0.04 0.00 67 1024.0
20230202160011 35 41 0.0 2.0 0.00 0.04 0.00 65 1024.3
20230202155509 35 41 1.0 3.0 0.00 0.06 0.00 66 1024.5
20230202155010 35 41 1.0 3.0 0.00 0.06 0.00 66 1024.7
20230202154508 35 41 1.0 3.0 0.00 0.06 0.00 68 1024.8
20230202154009 35 41 1.0 4.0 0.00 0.06 0.00 68 1024.7
20230202153509 35 41 1.0 4.0 0.00 0.06 0.00 67 1024.8
20230202153009 35 43 0.0 2.0 0.00 0.06 0.00 67 1024.7
20230202152509 35 43 0.0 2.0 0.00 0.06 0.00 70 1024.8
20230202152010 35 43 0.0 0.0 0.00 0.06 0.00 67 1024.6
20230202151510 34 43 0.0 2.0 0.00 0.06 0.00 66 1024.3
20230202151012 34 43 0.0 2.0 0.00 0.06 0.00 66 1024.3
20230202150009 33 43 0.0 0.0 0.00 0.08 0.00 69 1024.4
20230202145509 33 43 0.0 0.0 0.00 0.08 0.00 69 1024.6
20230202145009 32 43 0.0 0.0 0.00 0.08 0.00 67 1024.7
20230202144509 32 43 0.0 0.0 0.00 0.08 0.00 69 1024.5
20230202144010 32 43 0.0 0.0 0.00 0.08 0.00 72 1024.8
20230202143510 32 43 0.0 0.0 0.00 0.08 0.00 73 1024.9
20230202142509 32 43 0.0 0.0 0.00 0.08 0.00 74 1024.9
20230202142008 32 43 0.0 0.0 0.00 0.08 0.00 75 1025.0
20230202141509 32 43 0.0 0.0 0.00 0.08 0.00 75 1025.2
20230202141009 31 43 0.0 0.0 0.00 0.08 0.00 74 1025.2
20230202140010 31 43 0.0 0.0 0.00 0.08 0.00 75 1025.2
20230202135510 31 43 0.0 0.0 0.00 0.08 0.00 75 1024.9
20230202135008 31 43 0.0 2.0 0.00 0.08 0.00 77 1024.7
20230202134008 30 43 1.0 4.0 0.00 0.08 0.00 80 1024.9
20230202133507 30 43 1.0 4.0 0.00 0.08 0.00 80 1024.9
20230202132508 30 44 0.0 0.0 0.00 0.08 0.00 81 1024.6
20230202132008 30 44 0.0 0.0 0.00 0.08 0.00 81 1024.4
20230202131508 29 44 0.0 0.0 0.00 0.08 0.00 80 1024.7
20230202131008 29 44 0.0 0.0 0.00 0.08 0.00 80 1024.8
20230202130508 29 44 0.0 0.0 0.00 0.08 0.00 80 1024.6
20230202130009 29 44 0.0 0.0 0.00 0.09 0.00 80 1024.6
20230202125508 29 44 0.0 0.0 0.00 0.09 0.00 81 1024.8
20230202125008 29 44 0.0 0.0 0.00 0.09 0.00 81 1024.7
20230202124508 29 44 0.0 0.0 0.00 0.09 0.00 81 1024.6
20230202124008 29 44 0.0 0.0 0.00 0.09 0.00 81 1024.3
20230202123507 29 44 0.0 0.0 0.00 0.09 0.00 81 1024.3
20230202122508 29 44 0.0 0.0 0.00 0.09 0.00 80 1024.9
20230202122008 29 44 0.0 0.0 0.00 0.09 0.00 81 1024.9
20230202121008 29 44 0.0 0.0 0.00 0.09 0.00 80 1024.9
20230202120013 29 44 0.0 0.0 0.00 0.09 0.00 80 1025.4
20230202115508 28 44 0.0 0.0 0.00 0.09 0.00 81 1025.6
20230202115008 28 44 0.0 0.0 0.00 0.09 0.00 79 1025.5
20230202114508 28 44 0.0 0.0 0.00 0.09 0.00 80 1025.2
20230202114008 28 44 0.0 0.0 0.00 0.09 0.00 80 1025.3
20230202113509 28 44 0.0 0.0 0.00 0.09 0.00 81 1025.3
20230202113009 28 44 0.0 0.0 0.00 0.09 0.00 81 1025.2
20230202112508 28 44 0.0 0.0 0.00 0.09 0.00 82 1024.9
20230202112008 28 44 0.0 0.0 0.00 0.09 0.00 83 1025.1
20230202111008 28 44 0.0 0.0 0.00 0.09 0.00 85 1025.0
20230202110508 27 44 0.0 0.0 0.00 0.09 0.00 85 1024.9
20230202105507 27 44 0.0 0.0 0.00 0.09 0.00 86 1024.8
20230202105009 27 44 0.0 0.0 0.00 0.09 0.00 87 1024.9
20230202104507 27 44 0.0 0.0 0.00 0.09 0.00 86 1024.7
20230202104008 27 44 0.0 0.0 0.00 0.09 0.00 86 1024.7
20230202103507 27 44 0.0 0.0 0.00 0.09 0.00 86 1024.8
20230202103007 27 44 0.0 0.0 0.00 0.09 0.00 87 1024.8
20230202102507 27 44 0.0 0.0 0.00 0.09 0.00 87 1024.8
20230202102008 27 44 0.0 0.0 0.00 0.09 0.00 86 1025.0
20230202101507 27 44 0.0 0.0 0.00 0.09 0.00 86 1025.0
20230202101009 27 44 0.0 0.0 0.00 0.09 0.00 87 1024.9
20230202100507 27 44 0.0 0.0 0.00 0.09 0.00 87 1024.9
20230202095507 26 44 0.0 0.0 0.00 0.09 0.00 87 1025.1
20230202095009 26 44 0.0 0.0 0.00 0.09 0.00 87 1025.1
20230202094507 26 44 0.0 0.0 0.00 0.09 0.00 87 1025.2
20230202093508 26 44 0.0 0.0 0.00 0.09 0.00 88 1025.1
20230202093008 26 44 0.0 0.0 0.00 0.09 0.00 88 1025.3
20230202092507 26 44 0.0 0.0 0.00 0.09 0.00 87 1025.0
20230202092008 26 44 0.0 0.0 0.00 0.09 0.00 87 1024.9
20230202091508 25 44 0.0 0.0 0.00 0.09 0.00 87 1025.3
20230202091011 26 44 0.0 0.0 0.00 0.09 0.00 88 1025.7
20230202090508 26 44 0.0 0.0 0.00 0.09 0.00 87 1025.5
20230202090010 26 44 0.0 0.0 0.00 0.09 0.00 88 1025.5
20230202085507 26 44 0.0 0.0 0.00 0.11 0.00 88 1025.5
20230202085008 26 44 0.0 0.0 0.00 0.11 0.00 87 1025.4
20230202084507 26 44 0.0 0.0 0.00 0.11 0.00 88 1025.1
20230202084009 26 44 0.0 0.0 0.00 0.11 0.00 88 1025.3
20230202083507 26 44 0.0 0.0 0.00 0.11 0.00 88 1025.3
20230202083009 26 44 0.0 0.0 0.00 0.11 0.00 88 1025.8
20230202082507 26 44 0.0 0.0 0.00 0.11 0.00 88 1025.9
20230202082008 26 44 0.0 0.0 0.00 0.11 0.00 87 1026.1
20230202080507 26 44 0.0 0.0 0.00 0.11 0.00 87 1026.1
20230202080013 26 44 0.0 0.0 0.00 0.11 0.00 87 1026.0